ONEWEB-0423, 51627

Orbit data source: Space-Track

ONEWEB-0423, 51627 is a payload satellite owned by One Web (NAA) (UK) in LEO that was launched on Thu, 10 Feb 2022 UTC via a SOYUZ-ST-B launch vehicle from the French Guiana (FRGUI). Payload-class satellites include a variety of spacecraft equipped with specific instruments for various scientific and technological missions. These include communications satellites like Starlink; space stations such as the ISS; scientific satellites like the Hubble; Earth observation satellites from companies like Planet Labs, Umbra, and HawkEye 360; GPS; miniature CubeSats for education and research; and military/defense satellites.

Loading next visibility...
Identifier
51627, 2022-012F
Orbit
LEO
Country
Flag of UKUK
Related business
Manufacturer
One Web
Mission
Operational Commercial Communications
Bus & Motor
ARROW, Unknown motor
Mass
148 kg wet, ~140 kg dry
Launch date (UTC)
2022-02-10 (4 years ago)
Launch vehicle
SOYUZ-ST-B
Launch site
French Guiana (FRGUI)
Object type
Payload
Rocket body
Debris
Shape & HBR
Trap Box + 2 Pan, 6.7 m
Radar Cross Section
3.464 m², Large (>1 m²)

Expand to show TLE details & history
Last TLE update: 3 days ago

TLE from 3 days ago
0 ONEWEB-0423
1 51627U 22012F   26170.95435752  .00000010  00000-0 -76502-5 0  9991
2 51627  87.9134   5.3131 0001913  85.4303 274.7047 13.17650462214064
Epoch: 2026-06-19T22:54Z
TLE epoch observation values (Epoch: 2026-06-19T22:54:16.489Z)
Latitude
-0.00004°
Longitude
113.56847°
Altitude
1,196.488 km
Speed
7.256 km/s
True Right ascension
00h 21m 15s
True Declination
0° 00' 00"
Sunlit
Object was in daylight at epoch
Visualization orbit readout
Latitude
Unknown
Longitude
Unknown
Altitude
Unknown
Speed
Unknown
Apparent Right ascension
Unknown
Apparent Declination
Unknown
Sunlit
N/A
Visualization observer readout
Local Sidereal Time
23:08:20
Azimuth
Unknown
Elevation
Unknown
Doppler factor
Unknown
Orbital elements
Apogee altitude
1,192.264 km
Perigee altitude
1,189.369 km
Semi-major axis
7,568.953 km
Eccentricity
0.00019
Inclination
87.9134°
RAAN
5.3131°
Arg. of periapsis
85.4303°
True anomaly
274.68285°
Mean anomaly
274.7047°
Eccentric anomaly
274.69378°
Mean motion
3.29602 °/min
Orbital period
109.22 mins
BSTAR
-0.0000076502
Loading maneuver chart data...
Computing Atmospheric mass density...
Loading historical data...
Loading historical data...
Loading historical data...
Loading historical data...
Loading historical data...
Loading historical data...
Loading historical data...

Documentation

Showing up to 5 results
|